Skip Page Navigation
NASA JPL Caltech
NASA Logo - Jet Propulsion Laboratory + View the NASA Portal
+ Near-Earth Object (NEO) Program
Search JPL
JPL Home Earth Solar System Stars & Galaxies Technology
JPL Solar System Dynamics
BODIES ORBITS EPHEMERIDES TOOLS PHYSICAL DATA DISCOVERY FAQ SITE MAP
JPL Small-Body Database Browser
Search: [ help ]  
27850 (1994 UD2)
Classification: Main-belt Asteroid          SPK-ID: 2027850
Ephemeris | Orbit Diagram | Orbital Elements | Physical Parameters | Discovery Circumstances | Close-Approach Data ]

[ show orbit diagram ]
Orbital Elements at Epoch 2456800.5 (2014-May-23.0) TDB
Reference: JPL 7 (heliocentric ecliptic J2000)
 Element Value Uncertainty (1-sigma)   Units 
e .2426882540372986 7.9152e-08  
a 2.335161195624444 1.5399e-08 AU
q 1.768445002162697 1.805e-07 AU
i 5.906382017686739 7.3775e-06 deg
node 37.4005137632113 5.9883e-05 deg
peri 332.2362507796827 6.0978e-05 deg
M 193.1597456158333 1.7646e-05 deg
tp 2457404.548857483942
(2016-Jan-17.04885748)
6.8605e-05 JED
period 1303.388019257635
3.57
1.2893e-05
3.53e-08
d
yr
n .2762032446830711 2.7321e-09 deg/d
Q 2.901877389086192 1.9136e-08 AU
  Orbit Determination Parameters
   # obs. used (total)      561  
   data-arc span      7170 days (19.63 yr)  
   first obs. used      1994-10-31  
   last obs. used      2014-06-18  
   planetary ephem.      DE431  
   SB-pert. ephem.      SB431-BIG16  
   condition code      0  
   fit RMS      .59651  
   data source      ORB  
   producer      Otto Matic  
   solution date      2014-Jul-14 12:57:52  

Additional Information
 Earth MOID = .769576 AU 
 T_jup = 3.521 
[ show covariance matrix ]

Ephemeris | Orbit Diagram | Orbital Elements | Physical Parameters | Discovery Circumstances | Close-Approach Data ]

Physical Parameter Table
Parameter Symbol Value Units Sigma Reference Notes
absolute magnitude H 14.9 mag n/a PDS3 (MPO 15182)  

27850 (1994 UD2)          Discovered 1994-Oct-31 by Ueda, S., Kaneda, H. at Kushiro (399)
Reference: 20010902/Numbers.arcLast Updated: 2004-04-19

[ show close-approach data ]
Alternate Designations
 1994 UD2 = 1999 BU 
Ephemeris | Orbit Diagram | Orbital Elements | Physical Parameters | Discovery Circumstances | Close-Approach Data ]
ABOUT SSD CREDITS/AWARDS PRIVACY/COPYRIGHT GLOSSARY LINKS
FirstGov 2014-Jul-23 03:57 UT
(server date/time)  
NASA Home Page
Site Manager:   Donald K. Yeomans
Webmaster  Alan B. Chamberlin